| time (UTC) | temp F | wind direction | speed MPH | gust MPH | rain 1hr in | rain 24hr in | rain mn in | humidity % | barometer mb |
| 20260901064058 | 53 | 0 | 0.0 | 0.0 | 0.00 | 0.00 | 0.00 | 61 | 1021.3 |
| 20260901063559 | 53 | 0 | 0.0 | 0.0 | 0.00 | 0.00 | 0.00 | 61 | 1021.3 |
| 20260901063116 | 53 | 0 | 0.0 | 1.0 | 0.00 | 0.00 | 0.00 | 60 | 1021.3 |
| 20260901062559 | 54 | 0 | 0.0 | 1.0 | 0.00 | 0.00 | 0.00 | 59 | 1021.2 |
| 20260901062059 | 54 | 0 | 0.0 | 1.0 | 0.00 | 0.00 | 0.00 | 60 | 1021.3 |
| 20260901061621 | 55 | 0 | 0.0 | 1.0 | 0.00 | 0.00 | 0.00 | 58 | 1021.3 |
| 20260901061059 | 55 | 0 | 0.0 | 5.0 | 0.00 | 0.00 | 0.00 | 58 | 1021.4 |
| 20260901060559 | 55 | 0 | 0.0 | 5.0 | 0.00 | 0.00 | 0.00 | 56 | 1021.4 |
| 20260901060106 | 55 | 54 | 2.0 | 5.0 | 0.00 | 0.00 | 0.00 | 56 | 1021.4 |
| 20260901055558 | 56 | 68 | 2.0 | 4.0 | 0.00 | 0.00 | 0.00 | 56 | 1021.5 |
| 20260901055058 | 56 | 65 | 2.0 | 4.0 | 0.00 | 0.00 | 0.00 | 56 | 1021.5 |
| 20260901054605 | 56 | 65 | 3.0 | 4.0 | 0.00 | 0.00 | 0.00 | 56 | 1021.5 |
| 20260901054059 | 55 | 66 | 0.0 | 3.0 | 0.00 | 0.00 | 0.00 | 57 | 1021.5 |
| 20260901053559 | 55 | 106 | 0.0 | 0.0 | 0.00 | 0.00 | 0.00 | 60 | 1021.5 |
| 20260901053107 | 55 | 0 | 0.0 | 1.0 | 0.00 | 0.00 | 0.00 | 60 | 1021.5 |
| 20260901052558 | 55 | 0 | 0.0 | 2.0 | 0.00 | 0.00 | 0.00 | 60 | 1021.6 |
| 20260901052058 | 55 | 0 | 0.0 | 2.0 | 0.00 | 0.00 | 0.00 | 59 | 1021.5 |
| 20260901051618 | 56 | 221 | 0.0 | 1.0 | 0.00 | 0.00 | 0.00 | 58 | 1021.6 |
| 20260901051059 | 56 | 0 | 0.0 | 2.0 | 0.00 | 0.00 | 0.00 | 58 | 1021.6 |
| 20260901050600 | 56 | 0 | 0.0 | 2.0 | 0.00 | 0.00 | 0.00 | 56 | 1021.6 |
| 20260901050109 | 57 | 170 | 0.0 | 2.0 | 0.00 | 0.00 | 0.00 | 56 | 1021.6 |
| 20260901045558 | 57 | 0 | 0.0 | 4.0 | 0.00 | 0.00 | 0.00 | 57 | 1021.5 |
| 20260901045058 | 57 | 0 | 0.0 | 4.0 | 0.00 | 0.00 | 0.00 | 55 | 1021.5 |
| 20260901044605 | 58 | 176 | 1.0 | 3.0 | 0.00 | 0.00 | 0.00 | 54 | 1021.5 |
| 20260901044101 | 58 | 186 | 0.0 | 4.0 | 0.00 | 0.00 | 0.00 | 54 | 1021.5 |
| 20260901043559 | 59 | 0 | 1.0 | 4.0 | 0.00 | 0.00 | 0.00 | 54 | 1021.3 |
| 20260901043108 | 59 | 48 | 1.0 | 4.0 | 0.00 | 0.00 | 0.00 | 53 | 1021.5 |
| 20260901042558 | 59 | 0 | 0.0 | 3.0 | 0.00 | 0.00 | 0.00 | 53 | 1021.4 |
| 20260901042058 | 59 | 0 | 0.0 | 3.0 | 0.00 | 0.00 | 0.00 | 53 | 1021.3 |
| 20260901041603 | 59 | 73 | 0.0 | 3.0 | 0.00 | 0.00 | 0.00 | 53 | 1021.4 |
| 20260901041102 | 60 | 106 | 0.0 | 7.0 | 0.00 | 0.00 | 0.00 | 52 | 1021.4 |
| 20260901040558 | 60 | 0 | 2.0 | 7.0 | 0.00 | 0.00 | 0.00 | 52 | 1021.4 |
| 20260901040106 | 60 | 62 | 2.0 | 7.0 | 0.00 | 0.00 | 0.00 | 53 | 1021.5 |
| 20260901035559 | 60 | 0 | 0.0 | 7.0 | 0.00 | 0.00 | 0.00 | 52 | 1021.4 |
| 20260901035059 | 60 | 152 | 3.0 | 7.0 | 0.00 | 0.00 | 0.00 | 52 | 1021.4 |
| 20260901034610 | 60 | 184 | 3.0 | 7.0 | 0.00 | 0.00 | 0.00 | 51 | 1021.2 |
| 20260901034058 | 61 | 183 | 1.0 | 5.0 | 0.00 | 0.00 | 0.00 | 51 | 1021.1 |
| 20260901033601 | 61 | 146 | 3.0 | 5.0 | 0.00 | 0.00 | 0.00 | 50 | 1021.1 |
| 20260901033115 | 61 | 116 | 0.0 | 4.0 | 0.00 | 0.00 | 0.00 | 50 | 1021.1 |
| 20260901032559 | 61 | 145 | 2.0 | 5.0 | 0.00 | 0.00 | 0.00 | 50 | 1021.0 |
| 20260901032059 | 62 | 66 | 2.0 | 5.0 | 0.00 | 0.00 | 0.00 | 50 | 1020.9 |
| 20260901031606 | 62 | 131 | 2.0 | 5.0 | 0.00 | 0.00 | 0.00 | 50 | 1020.9 |
| 20260901031058 | 62 | 149 | 0.0 | 6.0 | 0.00 | 0.00 | 0.00 | 51 | 1020.8 |
| 20260901030558 | 62 | 129 | 3.0 | 6.0 | 0.00 | 0.00 | 0.00 | 51 | 1020.7 |
| 20260901030105 | 63 | 74 | 0.0 | 4.0 | 0.00 | 0.00 | 0.00 | 52 | 1020.7 |
| 20260901025558 | 63 | 0 | 1.0 | 3.0 | 0.00 | 0.00 | 0.00 | 51 | 1020.7 |
| 20260901025059 | 63 | 0 | 1.0 | 5.0 | 0.00 | 0.00 | 0.00 | 51 | 1020.6 |
| 20260901024615 | 63 | 193 | 0.0 | 10.0 | 0.00 | 0.00 | 0.00 | 52 | 1020.4 |
| 20260901024100 | 64 | 62 | 4.0 | 10.0 | 0.00 | 0.00 | 0.00 | 51 | 1020.4 |
| 20260901023558 | 64 | 54 | 3.0 | 10.0 | 0.00 | 0.00 | 0.00 | 50 | 1020.4 |
| 20260901023106 | 64 | 53 | 0.0 | 4.0 | 0.00 | 0.00 | 0.00 | 50 | 1020.3 |
| 20260901022558 | 64 | 0 | 0.0 | 7.0 | 0.00 | 0.00 | 0.00 | 49 | 1020.2 |
| 20260901022100 | 65 | 159 | 2.0 | 9.0 | 0.00 | 0.00 | 0.00 | 47 | 1020.1 |
| 20260901021606 | 65 | 21 | 2.0 | 10.0 | 0.00 | 0.00 | 0.00 | 48 | 1020.1 |
| 20260901021058 | 66 | 56 | 4.0 | 12.0 | 0.00 | 0.00 | 0.00 | 48 | 1020.1 |
| 20260901020601 | 66 | 37 | 2.0 | 12.0 | 0.00 | 0.00 | 0.00 | 46 | 1020.1 |
| 20260901015559 | 67 | 11 | 3.0 | 8.0 | 0.00 | 0.00 | 0.00 | 46 | 1019.9 |
| 20260901015057 | 68 | 72 | 2.0 | 7.0 | 0.00 | 0.00 | 0.00 | 46 | 1019.8 |
| 20260901014610 | 68 | 51 | 1.0 | 10.0 | 0.00 | 0.00 | 0.00 | 47 | 1019.7 |
| 20260901014059 | 69 | 326 | 3.0 | 12.0 | 0.00 | 0.00 | 0.00 | 45 | 1019.6 |
| 20260901013559 | 69 | 53 | 4.0 | 16.0 | 0.00 | 0.00 | 0.00 | 43 | 1019.5 |
| 20260901013101 | 71 | 356 | 5.0 | 16.0 | 0.00 | 0.00 | 0.00 | 41 | 1019.5 |
| 20260901012558 | 72 | 323 | 2.0 | 13.0 | 0.00 | 0.00 | 0.00 | 37 | 1019.4 |
| 20260901012058 | 73 | 15 | 2.0 | 13.0 | 0.00 | 0.00 | 0.00 | 36 | 1019.4 |
| 20260901011610 | 74 | 25 | 4.0 | 10.0 | 0.00 | 0.00 | 0.00 | 28 | 1019.5 |
| 20260901011058 | 74 | 77 | 2.0 | 12.0 | 0.00 | 0.00 | 0.00 | 28 | 1019.5 |
| 20260901010558 | 74 | 100 | 5.0 | 12.0 | 0.00 | 0.00 | 0.00 | 28 | 1019.3 |
| 20260901010115 | 74 | 20 | 4.0 | 11.0 | 0.00 | 0.00 | 0.00 | 28 | 1019.4 |
| 20260901005559 | 74 | 94 | 4.0 | 10.0 | 0.00 | 0.00 | 0.00 | 28 | 1019.3 |
| 20260901005058 | 74 | 83 | 4.0 | 12.0 | 0.00 | 0.00 | 0.00 | 29 | 1019.4 |
| 20260901004618 | 74 | 60 | 5.0 | 12.0 | 0.00 | 0.00 | 0.00 | 28 | 1019.3 |
| 20260901004058 | 74 | 103 | 1.0 | 12.0 | 0.00 | 0.00 | 0.00 | 28 | 1019.4 |
| 20260901003602 | 74 | 120 | 4.0 | 12.0 | 0.00 | 0.00 | 0.00 | 28 | 1019.5 |
| 20260901003102 | 74 | 85 | 6.0 | 11.0 | 0.00 | 0.00 | 0.00 | 28 | 1019.6 |
| 20260901002559 | 75 | 122 | 5.0 | 12.0 | 0.00 | 0.00 | 0.00 | 28 | 1019.5 |
| 20260901002059 | 74 | 153 | 6.0 | 12.0 | 0.00 | 0.00 | 0.00 | 28 | 1019.6 |
| 20260901001606 | 75 | 105 | 5.0 | 10.0 | 0.00 | 0.00 | 0.00 | 28 | 1019.6 |
| 20260901001059 | 75 | 117 | 4.0 | 10.0 | 0.00 | 0.00 | 0.00 | 28 | 1019.6 |
| 20260901000601 | 75 | 82 | 6.0 | 12.0 | 0.00 | 0.00 | 0.00 | 28 | 1019.7 |
| 20260901000110 | 75 | 102 | 5.0 | 12.0 | 0.00 | 0.00 | 0.00 | 29 | 1019.7 |
| 20260831235558 | 74 | 115 | 4.0 | 11.0 | 0.00 | 0.00 | 0.00 | 29 | 1019.7 |
| 20260831235055 | 75 | 170 | 5.0 | 13.0 | 0.00 | 0.00 | 0.00 | 28 | 1019.6 |
| 20260831234609 | 75 | 142 | 6.0 | 15.0 | 0.00 | 0.00 | 0.00 | 29 | 1019.9 |
| 20260831234057 | 75 | 84 | 8.0 | 15.0 | 0.00 | 0.00 | 0.00 | 29 | 1019.7 |
| 20260831233556 | 75 | 136 | 8.0 | 13.0 | 0.00 | 0.00 | 0.00 | 28 | 1019.7 |
| 20260831233105 | 75 | 37 | 2.0 | 11.0 | 0.00 | 0.00 | 0.00 | 29 | 1019.6 |
| 20260831232558 | 74 | 0 | 6.0 | 11.0 | 0.00 | 0.00 | 0.00 | 28 | 1019.5 |
| 20260831232056 | 75 | 24 | 5.0 | 11.0 | 0.00 | 0.00 | 0.00 | 28 | 1019.6 |
| 20260831231609 | 75 | 130 | 7.0 | 11.0 | 0.00 | 0.00 | 0.00 | 29 | 1019.7 |
| 20260831231057 | 75 | 118 | 4.0 | 14.0 | 0.00 | 0.00 | 0.00 | 29 | 1019.8 |
| 20260831230557 | 75 | 235 | 4.0 | 14.0 | 0.00 | 0.00 | 0.00 | 30 | 1019.8 |
| 20260831225556 | 75 | 119 | 5.0 | 18.0 | 0.00 | 0.00 | 0.00 | 29 | 1019.9 |
| 20260831225056 | 75 | 96 | 4.0 | 18.0 | 0.00 | 0.00 | 0.00 | 29 | 1019.9 |
| 20260831224610 | 74 | 131 | 8.0 | 18.0 | 0.00 | 0.00 | 0.00 | 30 | 1019.9 |
| 20260831224058 | 75 | 0 | 2.0 | 10.0 | 0.00 | 0.00 | 0.00 | 29 | 1020.1 |
| 20260831223558 | 75 | 155 | 4.0 | 14.0 | 0.00 | 0.00 | 0.00 | 28 | 1020.2 |
| 20260831223107 | 75 | 73 | 5.0 | 17.0 | 0.00 | 0.00 | 0.00 | 28 | 1020.3 |
| 20260831222600 | 75 | 129 | 7.0 | 17.0 | 0.00 | 0.00 | 0.00 | 28 | 1020.3 |
| 20260831222057 | 76 | 84 | 3.0 | 12.0 | 0.00 | 0.00 | 0.00 | 29 | 1020.4 |
| 20260831221610 | 75 | 0 | 3.0 | 15.0 | 0.00 | 0.00 | 0.00 | 28 | 1020.5 |
| 20260831221101 | 76 | 118 | 7.0 | 15.0 | 0.00 | 0.00 | 0.00 | 29 | 1020.5 |
| 20260831220557 | 76 | 76 | 5.0 | 13.0 | 0.00 | 0.00 | 0.00 | 29 | 1020.4 |
| 20260831220105 | 75 | 84 | 3.0 | 15.0 | 0.00 | 0.00 | 0.00 | 29 | 1020.5 |
| 20260831215557 | 75 | 107 | 4.0 | 15.0 | 0.00 | 0.00 | 0.00 | 29 | 1020.5 |
| 20260831215058 | 75 | 46 | 6.0 | 14.0 | 0.00 | 0.00 | 0.00 | 30 | 1020.4 |
| 20260831214607 | 75 | 40 | 2.0 | 11.0 | 0.00 | 0.00 | 0.00 | 29 | 1020.6 |
| 20260831214057 | 77 | 52 | 1.0 | 7.0 | 0.00 | 0.00 | 0.00 | 29 | 1020.9 |
| 20260831213556 | 76 | 0 | 1.0 | 13.0 | 0.00 | 0.00 | 0.00 | 29 | 1020.9 |
| 20260831213101 | 74 | 160 | 1.0 | 13.0 | 0.00 | 0.00 | 0.00 | 30 | 1021.1 |
| 20260831212556 | 74 | 69 | 6.0 | 13.0 | 0.00 | 0.00 | 0.00 | 30 | 1020.9 |
| 20260831212059 | 75 | 134 | 3.0 | 13.0 | 0.00 | 0.00 | 0.00 | 31 | 1021.0 |
| 20260831211606 | 74 | 123 | 5.0 | 17.0 | 0.00 | 0.00 | 0.00 | 30 | 1021.1 |
| 20260831211057 | 74 | 148 | 6.0 | 17.0 | 0.00 | 0.00 | 0.00 | 30 | 1021.0 |
| 20260831210556 | 74 | 76 | 6.0 | 17.0 | 0.00 | 0.00 | 0.00 | 30 | 1021.2 |
| 20260831210106 | 75 | 32 | 7.0 | 13.0 | 0.00 | 0.00 | 0.00 | 30 | 1021.1 |
| 20260831205559 | 74 | 97 | 6.0 | 18.0 | 0.00 | 0.00 | 0.00 | 32 | 1021.1 |
| 20260831205057 | 74 | 129 | 6.0 | 18.0 | 0.00 | 0.00 | 0.00 | 32 | 1021.2 |
| 20260831204603 | 74 | 30 | 7.0 | 19.0 | 0.00 | 0.00 | 0.00 | 32 | 1021.3 |
| 20260831204057 | 74 | 117 | 7.0 | 19.0 | 0.00 | 0.00 | 0.00 | 32 | 1021.3 |
| 20260831203557 | 73 | 140 | 8.0 | 19.0 | 0.00 | 0.00 | 0.00 | 32 | 1021.3 |
| 20260831203107 | 73 | 164 | 8.0 | 19.0 | 0.00 | 0.00 | 0.00 | 32 | 1021.3 |
| 20260831202558 | 73 | 97 | 8.0 | 19.0 | 0.00 | 0.00 | 0.00 | 33 | 1021.2 |
| 20260831202058 | 72 | 55 | 7.0 | 23.0 | 0.00 | 0.00 | 0.00 | 32 | 1021.4 |
| 20260831201603 | 73 | 136 | 8.0 | 23.0 | 0.00 | 0.00 | 0.00 | 33 | 1021.4 |
| 20260831201058 | 73 | 175 | 8.0 | 18.0 | 0.00 | 0.00 | 0.00 | 33 | 1021.4 |
| 20260831200558 | 73 | 68 | 9.0 | 16.0 | 0.00 | 0.00 | 0.00 | 33 | 1021.4 |
| 20260831200107 | 72 | 104 | 6.0 | 20.0 | 0.00 | 0.00 | 0.00 | 34 | 1021.5 |
| 20260831195558 | 72 | 51 | 11.0 | 20.0 | 0.00 | 0.00 | 0.00 | 33 | 1021.4 |
| 20260831195057 | 71 | 113 | 10.0 | 18.0 | 0.00 | 0.00 | 0.00 | 33 | 1021.6 |
| 20260831194640 | 71 | 107 | 10.0 | 19.0 | 0.00 | 0.00 | 0.00 | 33 | 1021.7 |
| 20260831194057 | 72 | 104 | 8.0 | 19.0 | 0.00 | 0.00 | 0.00 | 33 | 1021.7 |
| 20260831193558 | 72 | 69 | 9.0 | 19.0 | 0.00 | 0.00 | 0.00 | 32 | 1021.7 |
| 20260831193104 | 71 | 100 | 8.0 | 21.0 | 0.00 | 0.00 | 0.00 | 34 | 1021.8 |
| 20260831192558 | 71 | 104 | 10.0 | 21.0 | 0.00 | 0.00 | 0.00 | 33 | 1021.9 |
| 20260831192058 | 71 | 96 | 9.0 | 17.0 | 0.00 | 0.00 | 0.00 | 33 | 1021.8 |
| 20260831191608 | 71 | 68 | 10.0 | 21.0 | 0.00 | 0.00 | 0.00 | 33 | 1022.1 |
| 20260831191058 | 71 | 153 | 9.0 | 21.0 | 0.00 | 0.00 | 0.00 | 33 | 1022.0 |
| 20260831190558 | 71 | 119 | 10.0 | 18.0 | 0.00 | 0.00 | 0.00 | 32 | 1022.2 |
| 20260831190130 | 71 | 148 | 10.0 | 18.0 | 0.00 | 0.00 | 0.00 | 32 | 1022.1 |
| 20260831185558 | 71 | 175 | 7.0 | 19.0 | 0.00 | 0.00 | 0.00 | 33 | 1022.1 |
| 20260831185058 | 70 | 139 | 11.0 | 25.0 | 0.00 | 0.00 | 0.00 | 32 | 1022.3 |
| 20260831184614 | 70 | 115 | 8.0 | 25.0 | 0.00 | 0.00 | 0.00 | 33 | 1022.2 |
| 20260831184059 | 70 | 95 | 9.0 | 20.0 | 0.00 | 0.00 | 0.00 | 32 | 1022.2 |
| 20260831183559 | 71 | 117 | 6.0 | 16.0 | 0.00 | 0.00 | 0.00 | 32 | 1022.3 |
| 20260831183111 | 70 | 106 | 10.0 | 16.0 | 0.00 | 0.00 | 0.00 | 32 | 1022.3 |
| 20260831182601 | 71 | 122 | 7.0 | 14.0 | 0.00 | 0.00 | 0.00 | 32 | 1022.3 |
| 20260831182058 | 70 | 19 | 7.0 | 14.0 | 0.00 | 0.00 | 0.00 | 32 | 1022.4 |
| 20260831181606 | 70 | 119 | 6.0 | 14.0 | 0.00 | 0.00 | 0.00 | 32 | 1022.4 |
| 20260831181058 | 70 | 153 | 6.0 | 16.0 | 0.00 | 0.00 | 0.00 | 31 | 1022.4 |
| 20260831180559 | 70 | 110 | 5.0 | 17.0 | 0.00 | 0.00 | 0.00 | 32 | 1022.4 |
| 20260831180109 | 70 | 26 | 8.0 | 17.0 | 0.00 | 0.00 | 0.00 | 31 | 1022.3 |
| 20260831175600 | 72 | 60 | 5.0 | 14.0 | 0.00 | 0.00 | 0.00 | 30 | 1022.3 |
| 20260831175058 | 72 | 276 | 2.0 | 5.0 | 0.00 | 0.00 | 0.00 | 31 | 1022.4 |
| 20260831174639 | 72 | 0 | 1.0 | 4.0 | 0.00 | 0.00 | 0.00 | 29 | 1022.3 |
| 20260831174058 | 72 | 352 | 1.0 | 4.0 | 0.00 | 0.00 | 0.00 | 30 | 1022.4 |
| 20260831173558 | 71 | 349 | 1.0 | 4.0 | 0.00 | 0.00 | 0.00 | 30 | 1022.4 |
| 20260831173105 | 70 | 311 | 1.0 | 4.0 | 0.00 | 0.00 | 0.00 | 30 | 1022.4 |
| 20260831172558 | 70 | 56 | 1.0 | 4.0 | 0.00 | 0.00 | 0.00 | 32 | 1022.6 |
| 20260831172058 | 69 | 306 | 2.0 | 5.0 | 0.00 | 0.00 | 0.00 | 34 | 1022.6 |
| 20260831171604 | 69 | 74 | 0.0 | 5.0 | 0.00 | 0.00 | 0.00 | 35 | 1022.6 |
| 20260831171058 | 70 | 51 | 0.0 | 2.0 | 0.00 | 0.00 | 0.00 | 33 | 1022.5 |
| 20260831170558 | 69 | 244 | 0.0 | 3.0 | 0.00 | 0.00 | 0.00 | 34 | 1022.6 |
| 20260831170107 | 67 | 290 | 0.0 | 3.0 | 0.00 | 0.00 | 0.00 | 39 | 1022.5 |
| 20260831165559 | 66 | 44 | 0.0 | 4.0 | 0.00 | 0.00 | 0.00 | 41 | 1022.5 |
| 20260831165058 | 65 | 53 | 2.0 | 4.0 | 0.00 | 0.00 | 0.00 | 44 | 1022.6 |
| 20260831164605 | 65 | 42 | 1.0 | 3.0 | 0.00 | 0.00 | 0.00 | 42 | 1022.6 |
| 20260831164100 | 65 | 0 | 1.0 | 4.0 | 0.00 | 0.00 | 0.00 | 41 | 1022.8 |
| 20260831163558 | 64 | 52 | 2.0 | 4.0 | 0.00 | 0.00 | 0.00 | 45 | 1022.8 |
| 20260831163107 | 63 | 53 | 1.0 | 4.0 | 0.00 | 0.00 | 0.00 | 42 | 1022.8 |
| 20260831162559 | 63 | 53 | 1.0 | 4.0 | 0.00 | 0.00 | 0.00 | 42 | 1022.9 |
| 20260831162058 | 63 | 43 | 2.0 | 5.0 | 0.00 | 0.00 | 0.00 | 47 | 1022.9 |
| 20260831161608 | 62 | 34 | 2.0 | 5.0 | 0.00 | 0.00 | 0.00 | 47 | 1022.9 |
| 20260831161058 | 63 | 45 | 1.0 | 3.0 | 0.00 | 0.00 | 0.00 | 44 | 1022.9 |
| 20260831160558 | 62 | 52 | 0.0 | 3.0 | 0.00 | 0.00 | 0.00 | 47 | 1022.8 |
| 20260831160106 | 61 | 0 | 1.0 | 3.0 | 0.00 | 0.00 | 0.00 | 45 | 1022.9 |
| 20260831155601 | 60 | 47 | 0.0 | 3.0 | 0.00 | 0.00 | 0.00 | 45 | 1022.9 |
| 20260831155058 | 59 | 38 | 2.0 | 3.0 | 0.00 | 0.00 | 0.00 | 55 | 1022.9 |
| 20260831154627 | 58 | 0 | 0.0 | 2.0 | 0.00 | 0.00 | 0.00 | 58 | 1022.8 |
| 20260831154057 | 58 | 71 | 0.0 | 1.0 | 0.00 | 0.00 | 0.00 | 60 | 1022.8 |
| 20260831153601 | 57 | 0 | 0.0 | 1.0 | 0.00 | 0.00 | 0.00 | 61 | 1022.9 |
| 20260831153118 | 56 | 0 | 0.0 | 1.0 | 0.00 | 0.00 | 0.00 | 63 | 1023.0 |
| 20260831152558 | 54 | 95 | 0.0 | 1.0 | 0.00 | 0.00 | 0.00 | 66 | 1023.0 |
| 20260831152058 | 53 | 0 | 0.0 | 1.0 | 0.00 | 0.00 | 0.00 | 66 | 1022.9 |
| 20260831151613 | 53 | 86 | 0.0 | 1.0 | 0.00 | 0.00 | 0.00 | 69 | 1022.9 |
| 20260831151059 | 52 | 0 | 0.0 | 1.0 | 0.00 | 0.00 | 0.00 | 68 | 1022.9 |
| 20260831150559 | 51 | 0 | 0.0 | 1.0 | 0.00 | 0.00 | 0.00 | 71 | 1022.9 |
| 20260831150106 | 51 | 0 | 0.0 | 1.0 | 0.00 | 0.00 | 0.00 | 71 | 1022.9 |
| 20260831145559 | 51 | 0 | 0.0 | 0.0 | 0.00 | 0.00 | 0.00 | 72 | 1022.9 |
| 20260831145058 | 50 | 0 | 0.0 | 1.0 | 0.00 | 0.00 | 0.00 | 74 | 1022.9 |
| 20260831144605 | 48 | 0 | 0.0 | 1.0 | 0.00 | 0.00 | 0.00 | 76 | 1022.9 |
| 20260831144058 | 47 | 0 | 0.0 | 0.0 | 0.00 | 0.00 | 0.00 | 74 | 1023.0 |
| 20260831143558 | 46 | 0 | 0.0 | 1.0 | 0.00 | 0.00 | 0.00 | 76 | 1022.8 |
| 20260831143103 | 44 | 0 | 0.0 | 1.0 | 0.00 | 0.00 | 0.00 | 80 | 1022.8 |
| 20260831142558 | 42 | 0 | 0.0 | 1.0 | 0.00 | 0.00 | 0.00 | 82 | 1022.8 |
| 20260831142059 | 41 | 0 | 0.0 | 0.0 | 0.00 | 0.00 | 0.00 | 81 | 1022.8 |
| 20260831141606 | 42 | 0 | 0.0 | 0.0 | 0.00 | 0.00 | 0.00 | 81 | 1022.9 |
| 20260831141057 | 42 | 0 | 0.0 | 0.0 | 0.00 | 0.00 | 0.00 | 80 | 1022.9 |
| 20260831140558 | 42 | 0 | 0.0 | 1.0 | 0.00 | 0.00 | 0.00 | 80 | 1022.8 |
| 20260831140106 | 42 | 0 | 0.0 | 1.0 | 0.00 | 0.00 | 0.00 | 80 | 1022.7 |
| 20260831135559 | 42 | 0 | 0.0 | 1.0 | 0.00 | 0.00 | 0.00 | 80 | 1022.6 |
| 20260831135058 | 42 | 187 | 0.0 | 1.0 | 0.00 | 0.00 | 0.00 | 79 | 1022.6 |
| 20260831134614 | 42 | 0 | 0.0 | 1.0 | 0.00 | 0.00 | 0.00 | 79 | 1022.6 |
| 20260831134057 | 42 | 0 | 0.0 | 1.0 | 0.00 | 0.00 | 0.00 | 78 | 1022.6 |
| 20260831133557 | 42 | 0 | 0.0 | 0.0 | 0.00 | 0.00 | 0.00 | 79 | 1022.6 |
| 20260831133107 | 42 | 0 | 0.0 | 0.0 | 0.00 | 0.00 | 0.00 | 80 | 1022.6 |
| 20260831132557 | 42 | 0 | 0.0 | 1.0 | 0.00 | 0.00 | 0.00 | 80 | 1022.5 |
| 20260831132058 | 42 | 188 | 0.0 | 1.0 | 0.00 | 0.00 | 0.00 | 79 | 1022.5 |
| 20260831131601 | 42 | 174 | 0.0 | 1.0 | 0.00 | 0.00 | 0.00 | 79 | 1022.5 |
| 20260831131058 | 42 | 0 | 0.0 | 0.0 | 0.00 | 0.00 | 0.00 | 78 | 1022.6 |
| 20260831130558 | 42 | 0 | 0.0 | 0.0 | 0.00 | 0.00 | 0.00 | 77 | 1022.4 |
| 20260831130109 | 43 | 0 | 0.0 | 0.0 | 0.00 | 0.00 | 0.00 | 77 | 1022.4 |
| 20260831125558 | 43 | 0 | 0.0 | 0.0 | 0.00 | 0.00 | 0.00 | 77 | 1022.4 |
| 20260831125058 | 43 | 0 | 0.0 | 0.0 | 0.00 | 0.00 | 0.00 | 80 | 1022.4 |
| 20260831124608 | 42 | 0 | 0.0 | 0.0 | 0.00 | 0.00 | 0.00 | 78 | 1022.4 |
| 20260831124057 | 43 | 0 | 0.0 | 0.0 | 0.00 | 0.00 | 0.00 | 76 | 1022.5 |
| 20260831123558 | 43 | 0 | 0.0 | 0.0 | 0.00 | 0.00 | 0.00 | 75 | 1022.4 |
| 20260831123105 | 43 | 0 | 0.0 | 0.0 | 0.00 | 0.00 | 0.00 | 76 | 1022.4 |
| 20260831122601 | 44 | 0 | 0.0 | 1.0 | 0.00 | 0.00 | 0.00 | 76 | 1022.4 |
| 20260831122058 | 43 | 0 | 0.0 | 2.0 | 0.00 | 0.00 | 0.00 | 77 | 1022.4 |
| 20260831121632 | 43 | 0 | 0.0 | 2.0 | 0.00 | 0.00 | 0.00 | 76 | 1022.4 |
| 20260831121058 | 44 | 0 | 0.0 | 1.0 | 0.00 | 0.00 | 0.00 | 75 | 1022.5 |
| 20260831120601 | 44 | 0 | 0.0 | 1.0 | 0.00 | 0.00 | 0.00 | 76 | 1022.5 |
| 20260831120111 | 44 | 0 | 0.0 | 2.0 | 0.00 | 0.00 | 0.00 | 77 | 1022.6 |
| 20260831115557 | 43 | 0 | 0.0 | 2.0 | 0.00 | 0.00 | 0.00 | 76 | 1022.6 |
| 20260831115101 | 44 | 0 | 0.0 | 2.0 | 0.00 | 0.00 | 0.00 | 74 | 1022.6 |
| 20260831114605 | 44 | 0 | 0.0 | 1.0 | 0.00 | 0.00 | 0.00 | 75 | 1022.8 |
| 20260831114057 | 44 | 0 | 0.0 | 1.0 | 0.00 | 0.00 | 0.00 | 75 | 1022.6 |
| 20260831113557 | 44 | 0 | 0.0 | 1.0 | 0.00 | 0.00 | 0.00 | 75 | 1022.6 |
| 20260831113109 | 44 | 174 | 0.0 | 1.0 | 0.00 | 0.00 | 0.00 | 75 | 1022.7 |
| 20260831112558 | 44 | 0 | 0.0 | 1.0 | 0.00 | 0.00 | 0.00 | 76 | 1022.6 |
| 20260831112058 | 44 | 0 | 0.0 | 1.0 | 0.00 | 0.00 | 0.00 | 75 | 1022.7 |
| 20260831111604 | 44 | 0 | 0.0 | 0.0 | 0.00 | 0.00 | 0.00 | 76 | 1022.7 |
| 20260831111058 | 44 | 0 | 0.0 | 0.0 | 0.00 | 0.00 | 0.00 | 75 | 1022.7 |
| 20260831110558 | 45 | 0 | 0.0 | 0.0 | 0.00 | 0.00 | 0.00 | 77 | 1022.7 |
| 20260831110107 | 45 | 0 | 0.0 | 0.0 | 0.00 | 0.00 | 0.00 | 77 | 1022.6 |
| 20260831105622 | 45 | 0 | 0.0 | 0.0 | 0.00 | 0.00 | 0.00 | 77 | 1022.7 |
| 20260831105058 | 45 | 0 | 0.0 | 0.0 | 0.00 | 0.00 | 0.00 | 76 | 1022.8 |
| 20260831104605 | 45 | 0 | 0.0 | 0.0 | 0.00 | 0.00 | 0.00 | 77 | 1022.8 |
| 20260831104058 | 45 | 0 | 0.0 | 0.0 | 0.00 | 0.00 | 0.00 | 75 | 1022.8 |
| 20260831103559 | 46 | 0 | 0.0 | 0.0 | 0.00 | 0.00 | 0.00 | 74 | 1022.7 |
| 20260831103111 | 46 | 0 | 0.0 | 2.0 | 0.00 | 0.00 | 0.00 | 74 | 1022.8 |
| 20260831102557 | 46 | 174 | 0.0 | 2.0 | 0.00 | 0.00 | 0.00 | 73 | 1022.9 |
| 20260831102058 | 47 | 169 | 0.0 | 0.0 | 0.00 | 0.00 | 0.00 | 72 | 1022.9 |
| 20260831101604 | 47 | 0 | 0.0 | 0.0 | 0.00 | 0.00 | 0.00 | 73 | 1023.0 |
| 20260831101058 | 47 | 0 | 0.0 | 1.0 | 0.00 | 0.00 | 0.00 | 71 | 1022.9 |
| 20260831100556 | 47 | 0 | 0.0 | 2.0 | 0.00 | 0.00 | 0.00 | 69 | 1023.0 |
| 20260831100110 | 47 | 0 | 0.0 | 2.0 | 0.00 | 0.00 | 0.00 | 68 | 1022.9 |
| 20260831095557 | 47 | 0 | 0.0 | 2.0 | 0.00 | 0.00 | 0.00 | 67 | 1022.9 |
| 20260831095057 | 47 | 172 | 0.0 | 1.0 | 0.00 | 0.00 | 0.00 | 67 | 1022.9 |
| 20260831094608 | 47 | 0 | 0.0 | 1.0 | 0.00 | 0.00 | 0.00 | 66 | 1022.9 |
| 20260831094058 | 47 | 167 | 0.0 | 1.0 | 0.00 | 0.00 | 0.00 | 67 | 1022.9 |
| 20260831093557 | 47 | 0 | 0.0 | 1.0 | 0.00 | 0.00 | 0.00 | 66 | 1023.0 |
| 20260831093154 | 47 | 0 | 0.0 | 0.0 | 0.00 | 0.00 | 0.00 | 68 | 1023.0 |
| 20260831092558 | 47 | 0 | 0.0 | 0.0 | 0.00 | 0.00 | 0.00 | 67 | 1022.9 |
| 20260831092058 | 47 | 0 | 0.0 | 1.0 | 0.00 | 0.00 | 0.00 | 65 | 1022.9 |
| 20260831091606 | 48 | 0 | 0.0 | 1.0 | 0.00 | 0.00 | 0.00 | 63 | 1022.9 |
| 20260831091058 | 48 | 0 | 0.0 | 1.0 | 0.00 | 0.00 | 0.00 | 62 | 1022.9 |
| 20260831090558 | 49 | 0 | 0.0 | 0.0 | 0.00 | 0.00 | 0.00 | 64 | 1022.8 |
| 20260831090108 | 49 | 0 | 0.0 | 1.0 | 0.00 | 0.00 | 0.00 | 63 | 1022.8 |
| 20260831085558 | 49 | 0 | 0.0 | 2.0 | 0.00 | 0.00 | 0.00 | 63 | 1022.9 |
| 20260831085058 | 49 | 172 | 0.0 | 2.0 | 0.00 | 0.00 | 0.00 | 62 | 1023.1 |
| 20260831084652 | 49 | 170 | 0.0 | 1.0 | 0.00 | 0.00 | 0.00 | 62 | 1023.1 |
| 20260831084057 | 49 | 207 | 0.0 | 0.0 | 0.00 | 0.00 | 0.00 | 62 | 1023.2 |
| 20260831083557 | 50 | 0 | 0.0 | 0.0 | 0.00 | 0.00 | 0.00 | 61 | 1023.1 |
| 20260831083109 | 50 | 0 | 0.0 | 0.0 | 0.00 | 0.00 | 0.00 | 61 | 1023.1 |
| 20260831082601 | 50 | 0 | 0.0 | 0.0 | 0.00 | 0.00 | 0.00 | 61 | 1023.3 |
| 20260831082057 | 50 | 0 | 0.0 | 0.0 | 0.00 | 0.00 | 0.00 | 60 | 1023.2 |
| 20260831081610 | 50 | 0 | 0.0 | 3.0 | 0.00 | 0.00 | 0.00 | 60 | 1023.2 |
| 20260831081058 | 50 | 0 | 0.0 | 3.0 | 0.00 | 0.00 | 0.00 | 61 | 1023.4 |
| 20260831080559 | 50 | 255 | 0.0 | 3.0 | 0.00 | 0.00 | 0.00 | 60 | 1023.5 |
| 20260831080125 | 50 | 0 | 0.0 | 0.0 | 0.00 | 0.00 | 0.00 | 59 | 1023.3 |
| 20260831075558 | 50 | 0 | 0.0 | 3.0 | 0.00 | 0.00 | 0.00 | 58 | 1023.2 |
| 20260831075057 | 50 | 0 | 0.0 | 3.0 | 0.00 | 0.00 | 0.00 | 57 | 1023.3 |
| 20260831074605 | 50 | 143 | 0.0 | 3.0 | 0.00 | 0.00 | 0.00 | 56 | 1023.3 |
| 20260831074057 | 50 | 0 | 1.0 | 3.0 | 0.00 | 0.00 | 0.00 | 56 | 1023.5 |
| 20260831073557 | 50 | 176 | 0.0 | 2.0 | 0.00 | 0.00 | 0.00 | 58 | 1023.5 |
| 20260831073108 | 50 | 168 | 0.0 | 1.0 | 0.00 | 0.00 | 0.00 | 56 | 1023.5 |
| 20260831072600 | 50 | 0 | 0.0 | 1.0 | 0.00 | 0.00 | 0.00 | 58 | 1023.5 |
| 20260831072058 | 50 | 0 | 0.0 | 1.0 | 0.00 | 0.00 | 0.00 | 57 | 1023.5 |
| 20260831071612 | 50 | 0 | 0.0 | 1.0 | 0.00 | 0.00 | 0.00 | 58 | 1023.4 |
| 20260831071057 | 51 | 0 | 0.0 | 1.0 | 0.00 | 0.00 | 0.00 | 57 | 1023.5 |
| 20260831070557 | 51 | 0 | 0.0 | 1.0 | 0.00 | 0.00 | 0.00 | 58 | 1023.4 |
| 20260831070118 | 51 | 0 | 0.0 | 0.0 | 0.00 | 0.00 | 0.00 | 57 | 1023.4 |
| 20260831065557 | 51 | 0 | 0.0 | 2.0 | 0.00 | 0.00 | 0.00 | 57 | 1023.4 |
| 20260831065058 | 51 | 0 | 0.0 | 3.0 | 0.00 | 0.00 | 0.00 | 58 | 1023.5 |
| 20260831064606 | 50 | 170 | 1.0 | 3.0 | 0.00 | 0.00 | 0.00 | 57 | 1023.5 |